Regional Weather Roundup
Issued by NWS

Home | Current Version | Previous Version | Graphics & Text | Print | Product List | Glossary On
Versions: 1 2 3 4 5 6 7 8 9 10 11 12 13 14 15 16 17 18 19 20 21 22 23 24 25 26 27 28 29 30 31 32 33 34 35 36 37 38 39 40 41 42 43 44 45 46 47 48 49 50
500
ASUS43 KFSD 271510
RWRSD

WEATHER ROUNDUP FOR SOUTH DAKOTA
NATIONAL WEATHER SERVICE SIOUX FALLS SD
1000 AM CDT WED JUL 27 2016

NOTE: "FAIR" INDICATES FEW OR NO CLOUDS BELOW 12,000 FEET WITH NO
SIGNIFICANT WEATHER AND/OR OBSTRUCTIONS TO VISIBILITY.


SDZ001>005-009-010-012>017-271600-
NORTHWEST AND NORTH CENTRAL SOUTH DAKOTA

CITY           SKY/WX    TMP DP  RH WIND       PRES   REMARKS
BUFFALO          N/A     64  62  93 E14       30.07R
FAITH            N/A     65  62  90 CALM      30.12S
MOBRIDGE       CLOUDY    70  62  76 N6        30.08R
$$

SDZ012>016-024>037-041>051-057-063-072>074-271600-
SOUTHWEST AND SOUTH CENTRAL SOUTH DAKOTA

CITY           SKY/WX    TMP DP  RH WIND       PRES   REMARKS
RAPID CTY ARPT CLOUDY    69  62  78 CALM      30.12S
PIERRE         SUNNY     74  64  71 N5        30.05R
CUSTER         CLOUDY    59  55  87 W14       30.23F
ELLSWORTH AFB  CLOUDY    69  65  84 SW7       30.12S
PHILIP         MOSUNNY   75  65  70 N9        30.07R
PINE RIDGE     CLOUDY    68  60  75 W3        30.12F
WINNER         FAIR      78  61  55 NW8       30.05R
$$

SDZ004>011-016>023-039-040-271600-
NORTHEAST SOUTH DAKOTA

CITY           SKY/WX    TMP DP  RH WIND       PRES   REMARKS
ABERDEEN       CLOUDY    69  63  81 N12       30.04S
WATERTOWN      PTSUNNY   71  63  75 N13       30.02S
BROOKINGS      PTSUNNY   71  66  84 N10       30.01R
SISSETON         N/A     69  66  90 N9        30.00S
$$

SDZ017-020-022-023-036>040-048>070-271600-
SOUTHEAST SOUTH DAKOTA

CITY           SKY/WX    TMP DP  RH WIND       PRES   REMARKS
SIOUX FALLS    MOSUNNY   78  67  68 N9        29.98R
HURON          SUNNY     74  64  71 N13       30.00F
CHAMBERLAIN    SUNNY     78  66  66 NW15      30.04R
MITCHELL       SUNNY     78  64  61 NW12      30.00F
YANKTON        SUNNY     75  61  60 W7        30.01S
$$

ABBREVIATIONS USED IN REMARKS
   TC - TEMPERATURE IN CELSIUS
  WCI - WIND CHILL INDEX
   HX - HEAT INDEX
  VSB - VISIBILITY





USA.gov is the U.S. government's official web portal to all federal, state and local government web resources and services.